CZ-3B R/B (43684 NORAD) Tracking and Keplerian Element Data

This shows tracking and keplerian element data for the satellite.

Feedback or suggestion? Click here.




ElementValue
Catalog43684
NameCZ-3B R/B
Epoch Orbit68
Epoch Day333.76228416
Epoch Year2018
RAAN266.4822
Inclination28.337
Eccentricity0.7220759
Argument of Perigee196.8783
Mean Anonmoly112.7916
Mean Motion2.41561764
Decay Rate0.00110165
L11 43684U 18085B 18333.76228416 .00110165 -60633-6 61608-3 0 9994
L22 43684 28.3370 266.4822 7220759 196.8783 112.7916 2.41561764 681

Live tracking and technical data element details for CZ-3B R/B (NORAD 43684). CZ-3B R/B can be tracked NOW for your location showing map with azimuth and elevation plus other details from your city location.

Track the satellite on the map from your city or location and see movement details for azimuth, elevation, latitude, longitude, range, height, and movement on the map or in text.







IsCatalogInMostPopularTable: catalog: 43684, numindb: 142
Update: records affected: 1



GetName: 43684 CZ-3B R/B

Hit Count: updated at: Fri, 19 Jul 2019 23:10:39 GMT